Regional Weather Roundup
Issued by NWS Upton, NY

Home | Current Version | Previous Version | Text Only | Print | Product List | Glossary On
Versions: 1 2 3 4 5 6 7 8 9 10 11 12 13 14 15 16 17 18 19 20 21 22 23 24 25 26 27 28 29 30 31 32 33 34 35 36 37 38 39 40 41 42 43 44 45 46 47 48 49 50
000
ASUS41 KOKX 171308
RWROKX

REGIONAL WEATHER ROUNDUP
NATIONAL WEATHER SERVICE NEW YORK NY
800 AM EST TUE JAN 17 2017

NOTE: "FAIR" INDICATES FEW OR NO CLOUDS BELOW 12,000 FEET WITH NO
SIGNIFICANT WEATHER AND/OR OBSTRUCTIONS TO VISIBILITY.

NYZ071-072-176-178-NJZ106-104-171400-
NEW YORK CITY METRO AREA

CITY           SKY/WX    TMP DP  RH WIND       PRES   REMARKS
Central Park   CLOUDY    40  28  62 CALM      30.24R
Wall St Helipt CLOUDY    40  27  59 SW3       30.23F
Bronx Bot Gard NOT AVBL
LaGuardia APRT CLOUDY    42  30  62 SW5       30.22S
Kennedy INTL   CLOUDY    41  27  57 SW6       30.23F
Breezy Point     N/A     37 N/A N/A NW3         N/A
Newark/Liberty CLOUDY    40  27  59 CALM      30.22F
Teterboro      CLOUDY    40  29  64 SW5       30.21S
$$

NYZ177-179-078>081-171400-
LONG ISLAND NEW YORK

CITY           SKY/WX    TMP DP  RH WIND       PRES   REMARKS
Jones Beach      N/A     39 N/A N/A W5          N/A
Matinecock PT    N/A     37 N/A N/A CALM        N/A
Farmingdale    CLOUDY    37  29  72 CALM      30.23S
MacArthur/ISP  CLOUDY    34  29  82 CALM      30.22S
Shirley        CLOUDY    33  29  85 CALM      30.23F
Westhampton    CLOUDY    32  27  81 CALM      30.24F
Southampton    NOT AVBL
Bridgehampton  NOT AVBL
East Hampton   CLOUDY    34  29  82 CALM      30.23S
Montauk          N/A     39  30  70 CALM      30.24S
$$

NYZ052-065-067-171400-
HUDSON VALLEY

CITY           SKY/WX    TMP DP  RH WIND       PRES   REMARKS
White Plains   CLOUDY    36  27  69 CALM      30.20S
Newburgh       MOCLDY    34  30  86 CALM      30.22R
Montgomery     CLOUDY    34  28  79 CALM      30.19S
Poughkeepsie   CLOUDY    31  28  89 CALM      30.22S
Albany         CLOUDY    20  17  88 CALM      30.24S
$$

NJZ001-105-106-008-010-013-015-019>022-104-171400-
NEW JERSEY

CITY           SKY/WX    TMP DP  RH WIND       PRES   REMARKS
Newark/Liberty CLOUDY    40  27  59 CALM      30.22F
Teterboro      CLOUDY    40  29  64 SW5       30.21S
Caldwell       CLOUDY    38  27  64 CALM      30.22S
Somerville     CLOUDY    38  27  64 MISG      30.20S
Linden         CLOUDY    39  26  60 N3        30.22F
Sussex         CLOUDY    34  29  82 CALM      30.18F
Andover          N/A     34  28  79 CALM      30.20S
Trenton        CLOUDY    39  29  67 CALM      30.21S
Millville      CLOUDY    37  37 100 CALM      30.23R FOG
Atlantic City  CLOUDY    38  35  89 CALM      30.23R
Wrightstown    CLOUDY    38  30  71 SW3       30.19S
Toms River     CLOUDY    37  30  75 CALM      30.23S
Belmar         CLOUDY    39  27  62 CALM      30.23S
$$

PAZ047>061-062-071-171400-
EASTERN PENNSYLVANIA

CITY           SKY/WX    TMP DP  RH WIND       PRES   REMARKS
Philadelphia   CLOUDY    39  32  76 CALM      30.22S
Allentown      CLOUDY    35  30  82 CALM      30.19F HAZE
Scranton       CLOUDY    34  31  88 NE5       30.15F FOG     WCI  30
$$

CTZ002-004>006-009-010-012-RIZ004-006-007-MAZ004-011-015-171400-
SOUTHERN NEW ENGLAND
 IN CT

CITY           SKY/WX    TMP DP  RH WIND       PRES   REMARKS
Bradley INTL   CLOUDY    30  25  81 CALM      30.22R
Hartford       CLOUDY    32  29  88 CALM      30.23R
Danbury        CLOUDY    33  27  78 CALM      30.22S
Wtrbury/Oxford CLOUDY    34  25  69 CALM      30.20S
Bridgeport     CLOUDY    38  28  67 W3        30.23R
Meriden        CLOUDY    34  29  82 CALM      30.22S
New Haven      CLOUDY    37  29  72 CALM      30.23R
Chester        CLOUDY    36  27  69 CALM      30.21R
Groton         CLOUDY    37  28  70 CALM      30.23R
Wilimantic     CLOUDY    31  25  78 CALM      30.23R

 IN RI

CITY           SKY/WX    TMP DP  RH WIND       PRES   REMARKS
Providence     MOCLDY    31  26  82 CALM      30.23R
Block Island   NOT AVBL
Westerly       CLOUDY    37  27  67 CALM      30.24R
 IN MA

CITY           SKY/WX    TMP DP  RH WIND       PRES   REMARKS
Boston         MOCLDY    35  19  52 W9        30.23R WCI  28
Worcester      PTCLDY    32  14  47 NW3       30.19R
Westfield      CLOUDY    29  23  78 N3        30.22R
Provincetown   CLEAR     39  27  62 NW13      30.22R WCI  31
Nantucket      CLOUDY    37  32  82 W5        30.22R WCI  33
$$

ANZ330-335-338-340-345-350-353-355-171400-
COASTAL MARINE OBSERVATIONS


STATION/POSITION TIME  SKY/WX   TEMP    WIND        PRES    VSBY  WAVE
                                AIR SEA DIR/SP/G                  HT/PER
                 (UTC)          (F)     (DEG/KT/KT) (MB)    (MI)  (FT/S)
NY HARB ENTRANCE 1150            40 43  270/  6/  8 1023.6          1/ 9
20 S FIRE ISLAND 1150            42 45  270/ 10/ 12 1023.6          2/ 3
GREAT SOUTH BAY  NOT AVBL
23 SSW MONTAUK P 1150            42 48  270/ 12/ 16 1024.0          3/ 5
15 E BARNEGAT LI 1230               45                N/A           1/10
HUDSON CANYON    1150            48 52              1023.9          2/11
KINGS POINT      1230            39 38              1023.2
EXECUTION ROCKS  1245            39     160/  2/  4   N/A
CENTRAL LI SOUND 1230            40     250/  6/  8   N/A           1
EASTERN LI SOUND NOT AVBL
ROBBINS REEF     1230            39     270/  5/  6 1023.7
$$


>>>>>>>>>>>>>>>>>>>>>>>>>>>> KEY <<<<<<<<<<<<<<<<<<<<<<<<<<<
>                                                          <
>     SKY/WX - Sky Condition/Present Weather               <
>     TMP    - Temperature in Fahrenheit                   <
>     DP     - Dew Point in Fahrenheit                     <
>     RH     - Relative Humidity in Percent                <
>     WIND   - Direction (from) and Speed in MPH           <
>     PRES   - Mean Sea Level Pressure (inches of Hg)      <
>     WCI    - Wind Chill Index                            <
>     VSB    - VISIBILITY IN MILES                         <
>     HX     - HEAT INDEX                                  <
>     TC     - TEMPERATURE IN CELSIUS                      <
>     VRB    - VARIABLE WIND DIRECTION                     <
>                                                          <
>>>>>>>>>>>>>>>>>>>>>>>>>>>> KEY <<<<<<<<<<<<<<<<<<<<<<<<<<<



USA.gov is the U.S. government's official web portal to all federal, state and local government web resources and services.